LIVE Streaming HD
Get Adobe Flash player
Annunci di Google
SATELLITE
Annuci di Google
Dati meteo stazione (refresh automatico ogni minuto)
Latina(LT) VENTO: VELOCITÀ   PIOGGIA: QTA GIORNO TEMPERATURA: ATTUALE
SPOT: Latina lido
(Hotel Tirreno) Posizione su Googlemap: Latitudine 41.41 Longitudine 12.84
RAFFICA MASSIMA: QTA MENSILE: MASSIMA:
VELOCITÀ MEDIA: QTA ANNUALE: MINIMA:
DIREZIONE: UMIDITÀ: WIND CHILL:
TIPO: DEW POINT:
BEAUFORT: PRESSIONE:
I nostri partner
Latina(LT) nelle ultime ore
Applica filtri in visualizzazione Intervallo delle letture nelle ultime

Ora Direzione Vento Velocita' Vento Media Vento Raffica Max. Temperatura Wind Chill Pioggia Pressione
06:28:14123 °(ESE)0.3 Kts0 Kts4.7 Kts10.7 °C10.7 °C0 mm1009.7 Hpa
06:24:03123 °(ESE)0 Kts0 Kts4.7 Kts10.7 °C10.7 °C0 mm1009.9 Hpa
06:18:31123 °(ESE)0 Kts0 Kts4.7 Kts10.7 °C10.7 °C0 mm1009.9 Hpa
06:14:20123 °(ESE)0 Kts0 Kts4.7 Kts10.8 °C10.8 °C0 mm1009.9 Hpa
06:08:47123 °(ESE)0 Kts0 Kts4.7 Kts10.8 °C10.8 °C0 mm1009.7 Hpa
06:03:14123 °(ESE)0 Kts0 Kts4.7 Kts10.8 °C10.8 °C0 mm1009.7 Hpa
05:58:12123 °(ESE)0 Kts0 Kts4.7 Kts10.8 °C10.8 °C0 mm1009.6 Hpa
05:54:02123 °(ESE)0 Kts0.3 Kts4.7 Kts10.9 °C9.7 °C0 mm1009.6 Hpa
05:48:30123 °(ESE)0.3 Kts0 Kts4.7 Kts11.1 °C11.1 °C0 mm1009.7 Hpa
05:44:19123 °(ESE)0.3 Kts0 Kts4.7 Kts11.2 °C11.2 °C0 mm1009.6 Hpa
05:38:45123 °(ESE)0 Kts0 Kts4.7 Kts11.3 °C11.3 °C0 mm1009.5 Hpa
05:32:59123 °(ESE)0 Kts0 Kts4.7 Kts11.3 °C11.3 °C0 mm1009.5 Hpa
05:28:46123 °(ESE)0 Kts0 Kts4.7 Kts11.4 °C11.4 °C0 mm1009.5 Hpa
05:23:12123 °(ESE)0 Kts0 Kts4.7 Kts11.5 °C11.5 °C0 mm1009.4 Hpa
05:19:02123 °(ESE)0 Kts0 Kts4.7 Kts11.5 °C11.5 °C0 mm1009.2 Hpa
05:13:29123 °(ESE)0 Kts0 Kts4.7 Kts11.6 °C11.6 °C0 mm1009.2 Hpa
05:09:20123 °(ESE)0 Kts0 Kts4.7 Kts11.6 °C11.6 °C0 mm1009.2 Hpa
05:03:46123 °(ESE)0 Kts0.3 Kts4.7 Kts11.7 °C10.6 °C0 mm1009.3 Hpa
04:58:12123 °(ESE)0.3 Kts0 Kts4.7 Kts11.8 °C11.8 °C0 mm1009.2 Hpa
04:54:02123 °(ESE)0 Kts0 Kts4.7 Kts11.8 °C11.8 °C0 mm1009.3 Hpa
04:48:28123 °(ESE)0 Kts0 Kts4.7 Kts11.9 °C11.9 °C0 mm1009.2 Hpa
04:44:15123 °(ESE)0 Kts0 Kts4.7 Kts12.1 °C12.1 °C0 mm1009.4 Hpa
04:38:40123 °(ESE)0 Kts0 Kts4.7 Kts12.1 °C12.1 °C0 mm1009.4 Hpa
04:34:10123 °(ESE)0 Kts0 Kts4.7 Kts12.3 °C12.3 °C0 mm1009.5 Hpa